Weather Roundup
Issued by NWS Chicago, IL

Home | Current Version | Previous Version | Graphics & Text | Print | Product List | Glossary On
Versions: 1 2 3 4 5 6 7 8 9 10 11 12 13 14 15 16 17 18 19 20 21 22 23 24 25 26 27 28 29 30 31 32 33 34 35 36 37 38 39 40 41 42 43 44 45 46 47 48 49 50
000
NZUS59 KLOT 270058
HRRLOT

CHICAGO AREA WEATHER ROUNDUP
NATIONAL WEATHER SERVICE CHICAGO/ROMEOVILLE IL
700 PM CST MON JAN 26 2015

NOTE: "FAIR" INDICATES FEW OR NO CLOUDS BELOW 12,000 FEET WITH NO
SIGNIFICANT WEATHER AND/OR OBSTRUCTIONS TO VISIBILITY.

* THESE STATIONS ARE NOT UNDER NWS QUALITY CONTROL. THEY ALSO MAY NOT
  REPORT WEATHER SUCH AS PRECIPITATION OR FOG.

ILZ005-006-012>014-019>023-270200-
NORTHEAST ILLINOIS

CITY           SKY/WX    TMP DP  RH WIND       PRES   REMARKS
OHARE          FRZ DRZL  25  23  92 S8        29.89S FOG     WCI  16
MIDWAY         LGT SNOW  27  24  89 SE6       29.91S FOG     WCI  20
AURORA         CLOUDY    27  23  85 SE8       29.89S FOG     WCI  19
WAUKEGAN       NOT AVBL
DUPAGE AIRPORT FRZ RAIN  25  23  92 S8        29.88S FOG     WCI  16
WHEELING       CLOUDY    26  23  88 S7        29.92R FOG     WCI  18
NORTHERLY IS     N/A     26  23  88 S8          N/A  WCI  18
$$

WIZ051-052-058>065-066-070>072-270200-
SOUTHEAST WISCONSIN

CITY           SKY/WX    TMP DP  RH WIND       PRES   REMARKS
MILWAUKEE      LGT SNOW  26  20  77 SE7       29.90S WCI  18
KENOSHA*       FLURRIES  26  22  84 S6        29.89S WCI  19
RACINE*        LGT SNOW  26  22  84 S5        29.91S FOG     WCI  20
WAUKESHA       LGT SNOW  23  21  93 SE7       29.88S WCI  15
$$

INZ001>003-010>013-019-020-270200-
NORTHWEST INDIANA

CITY           SKY/WX    TMP DP  RH WIND       PRES   REMARKS
GARY*          FLURRIES  28  19  69 S5        29.92R WCI  23
MICHIGAN CITY* NOT AVBL
RENSSELAER*    NOT AVBL
$$

LMZ740>746-270200-
SOUTHERN LAKE MICHIGAN

STATION/POSITION TIME  SKY/WX   TEMP WIND        PRES    VSBY
                                AIR  DIR/SP/G
                 (UTC)          (F)  (DEG/KT/KT) (MB)    (MI)
HARRISON CRIB    0000            26  190/ 12/ 14   N/A
BURNHAM HARBOR   0000            27  200/  4/  7   N/A
CALUMET HARBOR   0000            26  170/  5/  7   N/A
BURNS HARBOR     NOT AVBL
MICHIGAN CITY    0000            23  130/  6/  8   N/A
$$

ABBREVIATIONS USED IN REMARKS
   TC - TEMPERATURE IN CELSIUS
  WCI - WIND CHILL INDEX
   HX - HEAT INDEX
  VSB - VISIBILITY
$$


USA.gov is the U.S. government's official web portal to all federal, state and local government web resources and services.